GW0435 Weather Reports


Display with metric or nautical units.
time (UTC)temp
F
wind
direction
speed
MPH
gust
MPH
rain 1hr
in
rain 24hr
in
rain mn
in
humidity
%
barometer
mb
20260505101542 50 300 0.0 3.0 0.00 0.00 0.00 37 999.1
20260505100038 51 300 1.0 5.0 0.00 0.00 0.00 36 998.9
20260505094537 52 300 3.0 8.0 0.00 0.00 0.00 36 999.0
20260505093035 51 301 5.0 8.0 0.00 0.00 0.00 37 999.1
20260505091533 51 301 1.0 6.0 0.00 0.00 0.00 38 999.1
20260505090031 52 301 2.0 5.0 0.00 0.00 0.00 37 999.2
20260505084542 51 301 1.0 4.0 0.00 0.00 0.00 35 999.4
20260505083027 52 301 0.0 3.0 0.00 0.00 0.00 34 999.6
20260505081525 53 301 0.0 2.0 0.00 0.00 0.00 33 1000.0
20260505080023 53 301 0.0 2.0 0.00 0.00 0.00 32 1000.0
20260505074520 54 301 0.0 3.0 0.00 0.00 0.00 31 1000.0
20260505073017 55 301 1.0 5.0 0.00 0.00 0.00 30 999.8
20260505071513 56 301 2.0 7.0 0.00 0.00 0.00 29 999.5
20260505070011 56 298 5.0 12.0 0.00 0.00 0.00 28 999.7
20260505064508 56 298 6.0 12.0 0.00 0.00 0.00 29 999.7
20260505063006 56 298 2.0 6.0 0.00 0.00 0.00 30 999.7
20260505061507 56 298 2.0 5.0 0.00 0.00 0.00 30 999.7
20260505060003 57 298 1.0 7.0 0.00 0.00 0.00 30 999.8
20260505054501 57 298 4.0 8.0 0.00 0.00 0.00 30 999.6
20260505053001 57 302 2.0 9.0 0.00 0.00 0.00 30 999.6
20260505051600 58 303 1.0 5.0 0.00 0.00 0.00 31 999.7
20260505050109 58 303 3.0 6.0 0.00 0.00 0.00 30 999.8
20260505041558 58 303 0.0 0.0 0.00 0.00 0.00 29 1000.1
20260505040059 58 303 0.0 7.0 0.00 0.00 0.00 28 1000.2
20260505034617 58 303 1.0 3.0 0.00 0.00 0.00 27 1000.2
20260505033058 59 303 0.0 6.0 0.00 0.00 0.00 26 1000.1
20260505031558 60 303 1.0 6.0 0.00 0.00 0.00 25 999.9
20260505030059 60 303 3.0 9.0 0.00 0.00 0.00 24 999.6
20260505024557 61 302 3.0 11.0 0.00 0.00 0.00 23 999.4
20260505023100 61 301 4.0 9.0 0.00 0.00 0.00 22 999.3
20260505021556 62 300 4.0 9.0 0.00 0.00 0.00 21 999.1
20260505020058 62 300 5.0 11.0 0.00 0.00 0.00 19 999.2
20260505014554 63 296 4.0 13.0 0.00 0.00 0.00 19 999.0
20260505013054 63 286 7.0 16.0 0.00 0.00 0.00 18 998.7
20260505011609 64 284 5.0 11.0 0.00 0.00 0.00 18 998.7
20260505010054 64 272 4.0 13.0 0.00 0.00 0.00 17 998.7
20260505004602 65 295 7.0 13.0 0.00 0.00 0.00 17 998.8
20260505003055 65 268 6.0 14.0 0.00 0.00 0.00 16 999.0
20260505001605 65 285 7.0 13.0 0.00 0.00 0.00 16 998.8
20260505000105 65 263 7.0 14.0 0.00 0.00 0.00 17 999.1
20260504234555 66 242 4.0 10.0 0.00 0.00 0.00 18 999.2
20260504233103 66 289 5.0 13.0 0.00 0.00 0.00 18 999.1
20260504231549 67 217 5.0 14.0 0.00 0.00 0.00 18 999.1
20260504230047 67 299 8.0 14.0 0.00 0.00 0.00 18 999.4
20260504224546 66 244 6.0 17.0 0.00 0.00 0.00 18 999.5
20260504223046 66 302 9.0 16.0 0.00 0.00 0.00 18 999.5
20260504221544 66 288 5.0 14.0 0.00 0.00 0.00 16 999.8
20260504220041 66 249 5.0 17.0 0.00 0.00 0.00 16 1000.1
20260504214541 67 284 8.0 16.0 0.00 0.00 0.00 14 1000.2
20260504213038 67 288 5.0 15.0 0.00 0.00 0.00 14 1000.2
20260504211536 67 274 7.0 15.0 0.00 0.00 0.00 12 1000.4
20260504210034 67 234 7.0 15.0 0.00 0.00 0.00 13 1000.8
20260504204532 67 236 8.0 18.0 0.00 0.00 0.00 14 1001.1
20260504203030 66 246 3.0 17.0 0.00 0.00 0.00 17 1001.3
20260504201530 67 274 5.0 12.0 0.00 0.00 0.00 18 1001.4
20260504200029 67 244 7.0 17.0 0.00 0.00 0.00 18 1001.2
20260504194531 66 232 8.0 20.0 0.00 0.00 0.00 19 1001.6
20260504193026 66 227 10.0 22.0 0.00 0.00 0.00 20 1001.5
20260504191524 66 230 9.0 17.0 0.00 0.00 0.00 21 1001.4
20260504190025 66 229 7.0 20.0 0.00 0.00 0.00 21 1001.3
20260504184523 65 228 4.0 14.0 0.00 0.00 0.00 22 1001.9
20260504183018 64 228 5.0 17.0 0.00 0.00 0.00 23 1002.0
20260504181515 64 226 7.0 17.0 0.00 0.00 0.00 23 1002.1
20260504180014 64 220 9.0 17.0 0.00 0.00 0.00 24 1002.2
20260504174512 64 220 4.0 10.0 0.00 0.00 0.00 26 1002.4
20260504173008 63 220 9.0 14.0 0.00 0.00 0.00 27 1002.3
20260504171505 62 220 2.0 11.0 0.00 0.00 0.00 32 1002.5